Torna al catalogo

STARLINK-5691

AttivoComunicazioniVLEO
NORAD 55478·PAYLOAD·🇺🇸 United States

Lanciato Feb 2, 2023 da Cape Canaveral Space Force Station

Loading…

Prossimi Passaggi (prossime 24 ore)

TLE

AggiornatoSource: CelesTrak SupGP

Epoca: Sep 15, 2026, 01:24 UTC

1 55478C 23015AF  26258.05881944  .00017955  00000+0  65043-3 0  2587
2 55478  43.0033 328.6683 0001780 274.2373 143.5067 15.27563209    11

Traccia STARLINK-5691 in tempo reale con AllMySat

Download on the App Store